Theta_e
308 309 311 311 310 309 304 293 286 302 305 288 288 283 284 290 287 288 286 286 285 283 286 287 287 285 288 293 294 290 294 289 282 287 293 294 295 292 292 286 283 282 281 283
308 309 310 310 309 307 298 289 291 301 300 281 283 285 285 287 286 284 284 284 286 287 284 281 285 289 291 293 295 291 295 288 282 284 288 291 290 293 294 293 286 285 282 284
309 309 309 308 308 306 295 290 285 286 290 287 285 283 282 281 287 286 286 284 286 284 284 285 281 284 288 292 293 298 297 288 286 282 285 289 288 291 293 292 286 286 286 288
309 309 308 307 306 305 293 285 282 285 281 280 284 284 283 281 279 285 286 284 284 282 275 280 281 284 286 289 293 295 295 287 287 288 289 290 290 291 292 291 291 286 289 289
309 309 308 306 306 302 289 282 282 281 282 284 284 285 279 282 282 283 282 281 284 284 279 282 279 284 285 286 291 290 294 286 289 285 289 290 287 291 292 293 293 293 292 288
308 308 307 306 304 298 287 286 286 285 283 278 280 278 281 282 284 284 286 285 284 282 285 286 285 287 288 288 287 288 286 285 285 282 286 287 283 288 291 291 294 293 289 294
308 307 307 305 303 298 289 287 285 281 278 280 280 283 283 283 284 282 285 287 284 287 291 290 288 288 288 288 288 290 284 283 281 278 285 277 287 293 294 293 294 296 296 295
307 306 304 303 302 301 295 291 288 281 278 280 282 284 283 283 285 283 285 286 288 293 290 282 279 281 284 284 286 287 288 285 278 277 281 284 285 287 291 290 291 296 296 298
305 304 303 302 303 301 295 293 292 287 281 277 282 280 283 276 272 273 284 285 289 291 286 283 269 269 272 272 282 289 287 288 283 281 280 278 287 288 297 296 286 297 298 297
304 303 304 303 302 301 295 290 290 287 281 282 282 279 280 283 279 275 283 286 286 287 282 280 275 277 281 272 278 284 284 284 280 281 282 282 286 289 298 285 287 294 298 298
304 304 303 302 301 299 293 289 290 286 279 282 285 287 286 285 282 278 281 283 285 285 281 278 274 276 280 280 283 284 284 283 283 284 281 279 287 294 290 292 286 288 290 296
303 303 302 301 300 299 295 288 291 290 284 284 288 288 289 288 288 285 285 282 284 285 283 282 283 283 284 281 278 287 283 287 284 287 285 286 291 287 290 288 288 288 289 292
302 302 302 301 300 299 294 288 288 287 283 284 283 284 289 291 290 291 288 287 291 290 291 286 286 283 282 280 280 284 285 282 286 285 283 282 284 287 287 289 288 287 288 289
300 300 300 299 298 298 294 287 287 285 279 273 279 291 287 291 291 290 290 288 290 289 290 285 285 283 285 282 282 282 273 275 277 282 280 282 284 281 282 286 286 286 285 286
299 299 299 298 297 295 290 287 287 287 281 274 280 283 284 286 290 289 289 288 286 285 284 283 283 285 284 283 277 266 268 265 269 274 272 273 280 280 281 281 281 282 283 282
298 298 297 297 296 294 285 280 285 288 286 277 271 279 283 283 287 288 288 288 286 285 284 285 285 284 281 276 265 265 265 266 267 267 270 270 275 278 278 278 277 277 279 281
297 298 297 297 295 289 283 279 286 291 286 275 276 272 278 281 284 285 285 285 285 284 285 283 281 270 272 266 261 261 261 262 264 266 267 275 273 271 273 277 276 275 274 273
297 297 296 295 294 290 282 284 292 287 279 273 267 270 272 280 274 275 285 283 284 283 281 275 271 263 262 255 258 259 259 260 264 261 264 269 271 269 268 270 272 270 270 270
295 294 291 285 281 278 277 291 289 281 277 266 266 267 266 277 276 278 278 283 278 280 273 267 265 257 251 255 256 256 257 257 258 260 265 264 265 265 264 265 265 267 267 267
292 283 277 274 275 288 285 276 272 271 266 266 271 270 270 277 274 270 274 279 276 272 270 266 258 255 258 257 257 257 257 257 258 257 259 259 260 263 262 261 262 263 264 264
277 270 272 278 283 276 268 264 265 262 261 262 261 266 270 276 268 267 277 272 275 269 268 264 257 255 257 257 256 257 257 257 258 258 259 260 260 260 262 262 261 261 262 262
276 275 273 270 266 265 264 254 259 259 257 259 258 261 267 270 276 271 272 270 271 264 267 262 256 257 256 255 255 255 256 256 256 258 258 259 259 258 259 260 260 261 262 263
272 267 262 264 258 259 254 251 255 254 258 258 258 258 262 267 274 268 268 265 265 268 260 256 256 256 255 255 255 254 256 256 256 256 258 258 258 258 258 258 259 260 260 261
261 259 257 254 251 250 249 250 250 257 260 257 259 256 258 261 266 266 262 265 265 259 257 256 255 254 254 254 254 254 254 255 255 255 256 257 258 258 258 258 258 259 259 259
255 257 252 252 254 254 253 253 252 256 257 258 259 260 265 257 259 260 262 259 253 254 255 253 254 254 254 253 253 254 254 254 254 255 255 256 257 258 258 258 258 259 259 259
255 254 253 251 252 252 253 252 254 258 258 258 259 258 258 256 253 255 250 255 255 254 249 252 255 254 254 253 253 254 254 254 255 255 256 256 256 257 257 258 257 258 258 258
254 253 248 249 249 252 253 254 257 260 257 260 260 260 255 257 253 249 249 251 250 250 251 253 254 254 254 254 254 254 254 254 255 255 256 256 257 258 257 256 256 258 258 258
Wind_Speed
32 32 43 43 44 36 22 5 7 10 17 10 6 9 12 7 6 4 4 6 7 7 7 11 15 12 10 11 17 19 15 5 10 15 6 2 14 12 19 11 19 3 1 12
28 44 42 44 42 29 11 6 8 3 15 6 10 7 6 5 5 5 4 5 4 3 8 6 7 8 2 8 14 12 14 8 9 3 3 4 8 15 19 18 3 19 13 11
41 40 42 42 35 26 8 7 9 4 4 0 17 17 8 6 4 5 5 7 6 6 3 4 6 5 3 1 12 15 8 6 11 13 5 6 13 19 18 23 13 22 20 18
39 41 41 35 29 20 8 4 3 2 10 5 12 11 12 8 5 3 4 4 4 8 5 3 5 4 1 2 5 3 6 13 14 14 8 3 10 19 25 25 34 18 25 21
38 38 35 31 21 13 8 7 7 3 6 12 16 8 8 15 6 8 5 7 6 5 8 10 8 8 6 6 5 9 6 7 8 16 13 12 13 16 16 26 29 25 27 18
34 31 30 26 16 11 5 1 4 8 7 4 8 5 9 14 9 3 9 11 7 8 14 5 3 3 2 2 6 5 4 2 7 20 11 14 16 29 25 24 27 30 28 40
30 27 25 18 12 10 5 2 6 7 4 7 5 8 4 11 15 8 4 9 9 5 5 2 2 5 8 9 10 9 6 6 3 10 9 19 24 15 29 32 31 29 29 17
29 30 25 17 9 7 6 2 5 5 6 6 6 11 6 7 7 6 8 6 7 6 6 4 3 3 3 10 18 18 17 8 5 6 12 5 7 11 28 25 33 29 29 31
31 28 27 19 16 15 7 4 2 6 9 5 7 7 6 6 5 4 3 2 1 5 3 4 7 6 7 6 5 21 19 18 8 9 13 10 14 7 18 11 22 32 30 25
32 29 27 23 17 11 7 4 5 7 7 2 5 6 7 5 4 4 4 4 2 1 5 4 4 5 5 4 6 8 9 13 20 17 13 10 6 7 22 16 18 12 26 23
28 28 26 23 16 11 8 2 5 6 5 2 3 2 4 4 4 6 5 5 3 3 8 5 5 5 8 4 6 7 9 6 11 10 7 15 8 20 23 11 1 3 2 14
27 24 22 19 20 17 9 5 3 6 9 4 3 3 3 3 2 5 6 5 5 5 5 5 4 4 4 5 6 4 6 9 5 12 8 2 8 6 3 0 2 2 4 6
25 23 22 20 16 14 10 4 3 5 5 3 3 2 1 1 1 3 4 2 2 3 2 2 4 8 4 6 7 4 5 4 4 3 2 6 11 8 14 7 3 2 2 4
26 25 24 22 20 17 11 6 2 5 4 6 2 1 1 2 3 1 2 2 2 2 1 3 3 4 2 2 3 2 2 9 6 1 6 3 9 16 15 11 9 8 8 7
23 23 24 24 25 25 15 6 5 4 5 5 3 1 1 2 2 3 4 2 1 2 3 3 4 2 2 2 4 6 8 6 5 4 9 8 5 14 16 10 11 11 8 9
21 21 21 20 12 7 4 6 5 5 3 6 3 3 3 5 3 3 6 6 3 2 3 3 2 3 4 3 4 8 11 11 10 8 17 14 14 6 17 11 13 13 13 11
20 16 13 13 16 7 7 4 3 6 2 5 4 3 3 2 2 0 1 1 2 2 2 2 2 6 7 5 4 15 16 17 14 14 20 2 12 8 13 12 13 12 14 13
19 21 22 18 13 9 6 4 10 3 5 5 5 1 4 4 2 2 1 2 2 2 1 3 4 5 6 7 12 15 17 18 8 20 17 10 9 10 13 15 11 11 12 10
12 12 8 5 8 5 3 15 7 4 6 5 4 3 3 4 2 2 2 1 1 2 3 4 5 5 8 7 13 14 14 13 16 20 6 13 12 11 12 12 13 11 11 9
9 6 6 4 3 10 6 9 7 8 6 7 4 2 2 2 3 3 2 2 1 2 3 5 7 4 5 10 9 10 11 12 13 10 11 14 13 13 11 11 8 7 7 8
5 4 2 3 10 5 6 4 6 5 6 5 3 2 3 4 3 2 1 2 2 2 2 4 3 2 5 11 10 10 10 11 10 8 8 8 7 9 8 7 7 6 7 6
4 5 4 5 8 5 9 2 5 7 0 6 3 4 4 5 2 3 3 1 3 1 2 5 3 2 7 9 11 11 10 11 11 9 8 7 8 7 6 6 7 7 7 8
5 8 8 6 7 12 7 4 5 4 6 5 6 6 3 5 2 2 3 5 2 3 6 3 1 4 7 8 9 10 9 10 9 9 10 9 8 8 8 8 8 7 8 8
8 7 9 6 6 3 3 4 4 4 3 6 5 4 2 3 4 2 6 1 4 4 3 2 2 4 6 6 7 7 9 9 9 9 10 9 9 8 8 8 7 7 9 8
7 7 5 4 2 1 2 2 2 2 3 3 3 4 2 4 4 4 3 6 4 2 1 1 1 3 5 6 6 7 8 8 8 7 8 8 8 7 7 8 8 8 7 8
6 10 4 3 3 4 3 2 3 2 5 2 3 1 4 5 3 7 2 2 1 2 1 1 2 3 4 5 6 7 7 7 7 7 7 7 7 7 6 6 8 7 7 7
7 3 1 3 1 3 2 1 3 4 3 2 2 5 1 2 5 4 3 1 1 1 1 1 1 3 4 5 6 6 7 7 7 7 7 6 6 5 5 7 8 6 6 5
Wind_Direction
174 179 140 147 143 129 118 91 110 151 136 149 171 173 143 133 146 86 95 92 95 137 167 189 194 201 197 191 180 194 197 230 226 218 174 209 243 217 201 205 215 224 185 250
145 146 147 139 134 139 128 92 101 59 143 144 162 134 142 122 126 128 134 116 136 168 148 147 177 193 319 175 180 185 178 220 231 206 265 205 227 223 207 224 118 222 226 247
142 145 136 136 138 134 91 108 128 50 87 67 156 157 166 107 90 104 104 115 88 96 133 45 155 168 268 249 200 210 185 197 226 228 225 145 209 200 222 211 225 234 228 247
139 136 139 134 127 132 90 47 84 55 159 175 154 143 154 125 125 89 111 46 146 140 112 116 182 183 259 271 203 152 222 231 214 237 260 314 230 219 215 208 224 216 237 234
138 138 134 135 128 100 78 114 130 44 81 122 134 144 181 164 145 135 181 133 161 154 162 182 174 157 189 192 191 175 187 256 219 238 237 227 237 240 235 222 229 232 247 251
133 134 135 144 89 70 87 121 73 101 125 91 128 182 151 184 123 43 149 138 146 198 216 187 199 214 215 191 173 161 129 312 253 256 223 234 236 228 219 231 235 218 229 234
133 130 138 118 78 62 108 143 94 87 121 117 142 132 102 155 182 131 157 150 157 228 133 93 304 270 249 235 225 184 194 201 120 282 241 220 241 218 216 217 223 224 237 246
133 127 123 105 105 105 93 59 97 108 101 99 110 142 114 127 159 168 152 196 175 143 101 77 308 243 242 235 229 211 204 171 178 243 260 294 265 219 195 196 231 223 229 238
119 123 117 116 113 111 84 46 58 99 108 219 140 123 147 148 150 33 174 301 45 112 152 161 199 213 205 252 244 205 194 208 196 222 244 235 247 178 188 180 255 227 227 236
114 116 123 120 114 108 95 52 20 81 100 25 122 162 167 145 130 131 139 156 110 180 169 216 197 236 187 207 207 165 178 208 208 210 239 278 237 187 135 164 243 192 205 218
113 116 113 108 106 99 82 77 8 108 97 52 44 80 129 125 138 147 187 95 209 157 192 186 214 221 219 178 226 177 172 217 200 206 183 249 176 148 164 204 359 94 161 214
109 101 97 98 98 87 91 81 360 56 77 102 50 76 65 12 328 127 178 177 174 165 186 210 214 221 220 192 240 183 201 193 209 206 199 270 181 351 24 348 162 187 223 247
96 95 95 88 76 71 96 105 36 59 94 66 72 114 173 44 10 24 168 201 152 195 66 250 231 235 164 203 223 87 133 339 226 171 18 340 27 358 3 338 44 36 32 79
94 93 93 91 88 82 77 79 345 79 105 110 220 145 100 142 169 167 46 66 60 31 248 226 257 245 198 270 22 82 28 321 332 47 11 317 52 14 335 337 358 31 50 56
93 98 100 98 93 87 82 78 40 54 114 134 138 282 233 217 198 225 203 196 153 179 222 201 237 259 216 94 100 36 356 8 346 35 9 314 2 345 343 20 10 360 39 60
91 95 101 102 70 46 62 51 0 13 62 110 106 262 14 356 314 276 214 203 182 220 230 226 213 71 315 110 85 44 5 346 331 320 318 302 293 11 7 27 24 18 42 50
84 97 103 75 63 60 60 109 327 340 20 86 94 10 305 260 288 17 13 89 213 218 254 235 67 23 17 53 71 350 347 334 317 351 336 72 19 347 357 31 46 48 52 46
89 93 97 88 85 81 36 356 4 1 89 65 98 261 29 4 328 357 208 218 192 183 14 46 42 29 40 61 344 345 346 335 348 342 332 340 348 2 15 32 31 51 53 47
104 99 78 48 35 37 286 337 57 36 87 103 73 105 219 344 332 278 328 220 107 42 50 47 58 19 48 344 338 340 346 348 321 319 318 5 18 13 21 42 31 50 48 44
102 51 43 30 314 316 8 9 22 17 350 23 66 323 346 9 358 315 15 5 340 61 57 90 54 74 125 14 348 345 340 332 334 346 359 357 359 0 15 41 44 44 47 45
41 52 93 252 343 48 33 44 57 332 27 10 311 327 317 328 47 279 54 289 324 72 37 90 64 44 2 349 344 351 344 343 342 342 342 346 336 345 354 21 35 36 45 45
128 128 71 33 29 32 73 5 349 40 344 332 321 315 332 300 329 50 329 139 34 50 10 75 53 26 353 341 345 349 349 346 343 350 345 352 11 3 359 350 16 35 44 45
35 44 47 27 319 43 58 343 336 16 345 9 348 320 344 319 4 343 54 51 35 121 42 81 67 350 347 345 343 338 346 350 352 353 360 3 13 16 17 8 6 16 38 30
64 53 26 63 355 35 176 190 212 272 349 339 307 275 318 305 2 316 80 284 39 60 53 1 12 356 344 345 339 340 342 350 349 356 358 3 4 12 15 13 6 19 35 31
66 53 50 57 249 339 230 217 342 313 309 326 309 281 288 335 45 19 31 37 58 72 205 17 9 360 349 345 342 339 344 347 350 349 357 357 358 3 17 10 9 22 30 34
68 43 50 335 48 327 2 2 301 3 328 279 230 283 53 25 84 48 14 44 119 170 167 323 346 348 355 346 341 336 333 336 344 350 352 352 359 4 355 5 14 19 24 33
48 31 63 119 132 237 290 347 307 311 286 25 317 54 184 323 55 28 349 55 192 189 259 231 50 351 354 348 343 340 336 346 349 350 357 353 345 358 16 19 359 360 16 19